Time,TemperatureF,DewpointF,PressureIn,WindDirection,WindDirectionDegrees,WindSpeedMPH,WindSpeedGustMPH,Humidity,HourlyPrecipIn,Conditions,Clouds,dailyrainin,SoftwareType,DateUTC
2013-04-17 00:00:00,56.5,51.0,29.59,SSW,203,2.9,5.4,82,0.00,,,0.02,WUHU216HW,2013-04-17 04:00:00,
2013-04-17 00:03:00,56.3,50.9,29.59,South,180,2.5,6.3,82,0.00,,,0.00,WUHU216HW,2013-04-17 04:03:00,
2013-04-17 00:08:00,56.3,50.9,29.58,South,180,4.5,6.9,82,0.00,,,0.00,WUHU216HW,2013-04-17 04:08:00,
2013-04-17 00:13:00,56.3,51.2,29.58,SW,225,4.3,7.2,83,0.00,,,0.00,WUHU216HW,2013-04-17 04:13:00,
2013-04-17 00:18:00,56.3,51.2,29.59,WSW,248,1.3,7.2,83,0.00,,,0.00,WUHU216HW,2013-04-17 04:18:00,
2013-04-17 00:23:00,56.3,51.2,29.59,SW,225,1.8,7.2,83,0.00,,,0.00,WUHU216HW,2013-04-17 04:23:00,
2013-04-17 00:28:00,56.3,51.2,29.59,SW,225,1.8,7.2,83,0.00,,,0.00,WUHU216HW,2013-04-17 04:28:00,
2013-04-17 00:33:00,56.3,51.2,29.60,SSW,203,0.7,5.4,83,0.00,,,0.00,WUHU216HW,2013-04-17 04:33:00,
2013-04-17 00:38:00,56.3,51.5,29.60,West,270,4.5,5.6,84,0.00,,,0.00,WUHU216HW,2013-04-17 04:38:00,
2013-04-17 00:43:00,56.0,51.1,29.60,SSW,203,1.1,5.6,84,0.00,,,0.00,WUHU216HW,2013-04-17 04:43:00,
2013-04-17 00:48:00,55.8,51.3,29.60,SW,225,6.0,6.9,85,0.00,,,0.00,WUHU216HW,2013-04-17 04:48:00,
2013-04-17 00:53:00,55.4,51.3,29.60,SW,225,4.0,6.9,86,0.00,,,0.00,WUHU216HW,2013-04-17 04:53:00,
2013-04-17 00:58:00,55.1,51.0,29.60,West,270,1.6,6.9,86,0.00,,,0.00,WUHU216HW,2013-04-17 04:58:00,
2013-04-17 01:04:00,54.9,50.8,29.59,SSE,158,2.2,4.5,86,0.00,,,0.00,WUHU216HW,2013-04-17 05:04:00,
2013-04-17 01:09:00,54.7,50.6,29.60,SSW,203,0.4,3.1,86,0.00,,,0.00,WUHU216HW,2013-04-17 05:09:00,
2013-04-17 01:14:00,54.7,50.9,29.60,South,180,1.3,3.8,87,0.00,,,0.00,WUHU216HW,2013-04-17 05:14:00,
2013-04-17 01:19:00,54.5,50.8,29.59,SE,135,6.0,6.0,87,0.00,,,0.00,WUHU216HW,2013-04-17 05:19:00,
2013-04-17 01:24:00,54.5,51.0,29.59,South,180,4.0,6.0,88,0.00,,,0.00,WUHU216HW,2013-04-17 05:24:00,
2013-04-17 01:29:00,54.5,51.3,29.60,SW,225,6.7,6.9,89,0.00,,,0.00,WUHU216HW,2013-04-17 05:29:00,
2013-04-17 01:34:00,54.5,50.8,29.60,SSW,203,3.6,6.9,87,0.00,,,0.00,WUHU216HW,2013-04-17 05:34:00,
2013-04-17 01:39:00,54.5,50.8,29.60,SSE,158,1.8,6.9,87,0.00,,,0.00,WUHU216HW,2013-04-17 05:39:00,
2013-04-17 01:44:00,54.5,50.8,29.61,WNW,293,0.7,5.4,87,0.00,,,0.00,WUHU216HW,2013-04-17 05:44:00,
2013-04-17 01:49:00,54.5,50.8,29.61,WSW,248,1.1,5.4,87,0.00,,,0.00,WUHU216HW,2013-04-17 05:49:00,
2013-04-17 01:54:00,54.5,50.8,29.61,WSW,248,1.8,3.4,87,0.00,,,0.00,WUHU216HW,2013-04-17 05:54:00,
2013-04-17 01:59:00,54.5,50.8,29.62,SW,225,0.4,2.5,87,0.00,,,0.00,WUHU216HW,2013-04-17 05:59:00,
2013-04-17 02:04:00,54.7,51.2,29.61,West,270,2.0,6.3,88,0.00,,,0.00,WUHU216HW,2013-04-17 06:04:00,
2013-04-17 02:10:00,54.7,50.9,29.61,SW,225,0.4,6.3,87,0.00,,,0.00,WUHU216HW,2013-04-17 06:10:00,
2013-04-17 02:15:00,54.7,50.9,29.61,WSW,248,2.0,4.7,87,0.00,,,0.00,WUHU216HW,2013-04-17 06:15:00,
2013-04-17 02:20:00,54.7,50.9,29.61,SW,225,0.9,4.7,87,0.00,,,0.00,WUHU216HW,2013-04-17 06:20:00,
2013-04-17 02:25:00,54.7,50.6,29.61,WSW,248,1.1,3.4,86,0.00,,,0.00,WUHU216HW,2013-04-17 06:25:00,
2013-04-17 02:30:00,54.5,50.4,29.61,SSW,203,1.8,3.4,86,0.00,,,0.00,WUHU216HW,2013-04-17 06:30:00,
2013-04-17 02:35:00,54.4,50.2,29.61,West,270,0.2,2.0,86,0.00,,,0.00,WUHU216HW,2013-04-17 06:35:00,
2013-04-17 02:40:00,54.4,50.2,29.61,SW,225,0.9,2.5,86,0.00,,,0.00,WUHU216HW,2013-04-17 06:40:00,
2013-04-17 02:45:00,54.2,50.0,29.62,NW,315,0.4,2.7,86,0.00,,,0.00,WUHU216HW,2013-04-17 06:45:00,
2013-04-17 02:50:00,54.4,49.6,29.61,NNW,338,0.7,4.3,84,0.00,,,0.00,WUHU216HW,2013-04-17 06:50:00,
2013-04-17 02:55:00,54.4,49.3,29.62,West,270,1.1,4.3,83,0.00,,,0.00,WUHU216HW,2013-04-17 06:55:00,
2013-04-17 03:00:00,54.2,48.5,29.62,NW,315,1.8,4.7,81,0.00,,,0.00,WUHU216HW,2013-04-17 07:00:00,
2013-04-17 03:05:00,54.0,46.3,29.62,West,270,2.5,4.7,75,0.00,,,0.00,WUHU216HW,2013-04-17 07:05:00,
2013-04-17 03:10:00,54.0,45.9,29.62,West,270,1.8,4.5,74,0.00,,,0.00,WUHU216HW,2013-04-17 07:10:00,
2013-04-17 03:16:00,54.0,45.9,29.62,NW,315,0.9,4.5,74,0.00,,,0.00,WUHU216HW,2013-04-17 07:16:00,
2013-04-17 03:21:00,53.8,45.4,29.62,NNW,338,2.7,5.1,73,0.00,,,0.00,WUHU216HW,2013-04-17 07:21:00,
2013-04-17 03:26:00,53.6,44.8,29.62,WSW,248,1.1,5.1,72,0.00,,,0.00,WUHU216HW,2013-04-17 07:26:00,
2013-04-17 03:31:00,53.5,45.0,29.62,SW,225,3.1,3.8,73,0.00,,,0.00,WUHU216HW,2013-04-17 07:31:00,
2013-04-17 03:37:00,53.3,44.1,29.62,NW,315,2.2,4.7,71,0.00,,,0.00,WUHU216HW,2013-04-17 07:37:00,
2013-04-17 03:42:00,53.1,44.3,29.62,West,270,1.8,4.7,72,0.00,,,0.00,WUHU216HW,2013-04-17 07:42:00,
2013-04-17 03:47:00,52.9,44.2,29.63,West,270,1.3,3.8,72,0.00,,,0.00,WUHU216HW,2013-04-17 07:47:00,
2013-04-17 03:52:00,52.7,43.7,29.63,West,270,2.9,4.0,71,0.00,,,0.00,WUHU216HW,2013-04-17 07:52:00,
2013-04-17 03:57:00,52.6,43.8,29.63,WSW,248,0.9,5.4,72,0.00,,,0.00,WUHU216HW,2013-04-17 07:57:00,
2013-04-17 04:02:00,52.2,43.5,29.63,West,270,2.0,5.4,72,0.00,,,0.00,WUHU216HW,2013-04-17 08:02:00,
2013-04-17 04:07:00,52.2,43.5,29.63,West,270,0.2,5.1,72,0.00,,,0.00,WUHU216HW,2013-04-17 08:07:00,
2013-04-17 04:12:00,51.8,43.2,29.63,WNW,293,0.7,4.7,72,0.00,,,0.00,WUHU216HW,2013-04-17 08:12:00,
2013-04-17 04:17:00,51.8,43.2,29.63,NNW,338,0.4,4.7,72,0.00,,,0.00,WUHU216HW,2013-04-17 08:17:00,
2013-04-17 04:22:00,51.7,43.3,29.63,WNW,293,2.2,2.7,73,0.00,,,0.00,WUHU216HW,2013-04-17 08:22:00,
2013-04-17 04:27:00,51.5,43.1,29.63,West,270,0.4,2.7,73,0.00,,,0.00,WUHU216HW,2013-04-17 08:27:00,
2013-04-17 04:32:00,51.3,43.3,29.63,NW,315,1.1,2.5,74,0.00,,,0.00,WUHU216HW,2013-04-17 08:32:00,
2013-04-17 04:37:00,51.1,43.1,29.63,NNW,338,1.1,3.8,74,0.00,,,0.00,WUHU216HW,2013-04-17 08:37:00,
2013-04-17 04:42:00,51.1,43.1,29.63,SW,225,0.7,3.8,74,0.00,,,0.00,WUHU216HW,2013-04-17 08:42:00,
2013-04-17 04:47:00,50.9,43.3,29.64,WNW,293,0.0,3.1,75,0.00,,,0.00,WUHU216HW,2013-04-17 08:47:00,
2013-04-17 04:52:00,50.8,43.1,29.64,NW,315,2.5,3.6,75,0.00,,,0.00,WUHU216HW,2013-04-17 08:52:00,
2013-04-17 04:57:00,50.8,43.1,29.64,NW,315,1.1,3.6,75,0.00,,,0.00,WUHU216HW,2013-04-17 08:57:00,
2013-04-17 05:02:00,50.8,43.1,29.64,NW,315,0.7,2.9,75,0.00,,,0.00,WUHU216HW,2013-04-17 09:02:00,
2013-04-17 05:08:00,50.6,42.9,29.63,WSW,248,1.1,2.9,75,0.00,,,0.00,WUHU216HW,2013-04-17 09:08:00,
2013-04-17 05:13:00,50.6,43.3,29.64,NNW,338,3.8,4.0,76,0.00,,,0.00,WUHU216HW,2013-04-17 09:13:00,
2013-04-17 05:18:00,50.4,43.1,29.64,North,0,2.5,4.0,76,0.00,,,0.00,WUHU216HW,2013-04-17 09:18:00,
2013-04-17 05:23:00,50.4,43.1,29.64,NW,315,1.6,3.4,76,0.00,,,0.00,WUHU216HW,2013-04-17 09:23:00,
2013-04-17 05:28:00,50.4,43.1,29.64,NNW,338,0.9,3.4,76,0.00,,,0.00,WUHU216HW,2013-04-17 09:28:00,
2013-04-17 05:33:00,50.2,42.9,29.64,WNW,293,0.7,3.4,76,0.00,,,0.00,WUHU216HW,2013-04-17 09:33:00,
2013-04-17 05:38:00,50.2,42.9,29.65,West,270,0.2,1.8,76,0.00,,,0.00,WUHU216HW,2013-04-17 09:38:00,
2013-04-17 05:43:00,50.0,42.8,29.65,North,0,1.8,3.1,76,0.00,,,0.00,WUHU216HW,2013-04-17 09:43:00,
2013-04-17 05:48:00,50.0,42.8,29.65,NNW,338,1.8,4.0,76,0.00,,,0.00,WUHU216HW,2013-04-17 09:48:00,
2013-04-17 05:53:00,50.0,42.4,29.65,ENE,68,1.6,4.0,75,0.00,,,0.00,WUHU216HW,2013-04-17 09:53:00,
2013-04-17 05:58:00,50.0,42.4,29.65,NW,315,2.0,4.0,75,0.00,,,0.00,WUHU216HW,2013-04-17 09:58:00,
2013-04-17 06:04:00,49.7,42.0,29.65,NW,315,1.6,5.1,75,0.00,,,0.00,WUHU216HW,2013-04-17 10:04:00,
2013-04-17 06:09:00,49.5,41.9,29.65,NNW,338,0.9,5.1,75,0.00,,,0.00,WUHU216HW,2013-04-17 10:09:00,
2013-04-17 06:14:00,49.3,41.7,29.65,West,270,0.7,4.7,75,0.00,,,0.00,WUHU216HW,2013-04-17 10:14:00,
2013-04-17 06:19:00,49.3,41.3,29.65,ESE,113,3.4,3.4,74,0.00,,,0.00,WUHU216HW,2013-04-17 10:19:00,
2013-04-17 06:24:00,49.1,41.1,29.66,NE,45,1.3,3.4,74,0.00,,,0.00,WUHU216HW,2013-04-17 10:24:00,
2013-04-17 06:29:00,49.0,41.0,29.66,NE,45,2.0,2.7,74,0.00,,,0.00,WUHU216HW,2013-04-17 10:29:00,
2013-04-17 06:34:00,49.0,40.6,29.66,NW,315,0.2,3.1,73,0.00,,,0.00,WUHU216HW,2013-04-17 10:34:00,
2013-04-17 06:39:00,49.0,41.0,29.66,WSW,248,0.0,3.1,74,0.00,,,0.00,WUHU216HW,2013-04-17 10:39:00,
2013-04-17 06:44:00,48.8,40.8,29.66,North,0,1.1,1.6,74,0.00,,,0.00,WUHU216HW,2013-04-17 10:44:00,
2013-04-17 06:49:00,49.5,41.1,29.67,East,90,0.7,4.5,73,0.00,,,0.00,WUHU216HW,2013-04-17 10:49:00,
2013-04-17 06:54:00,51.1,42.1,29.67,NNW,338,0.4,4.5,71,0.00,,,0.00,WUHU216HW,2013-04-17 10:54:00,
2013-04-17 06:59:00,52.2,42.4,29.67,North,0,0.4,3.4,69,0.00,,,0.00,WUHU216HW,2013-04-17 10:59:00,
2013-04-17 07:04:00,52.4,41.8,29.67,NNW,338,3.1,6.9,67,0.00,,,0.00,WUHU216HW,2013-04-17 11:04:00,
2013-04-17 07:10:00,52.6,42.0,29.67,NW,315,0.2,6.9,67,0.00,,,0.00,WUHU216HW,2013-04-17 11:10:00,
2013-04-17 07:15:00,52.4,41.0,29.68,NNE,23,4.9,4.9,65,0.00,,,0.00,WUHU216HW,2013-04-17 11:15:00,
2013-04-17 07:20:00,51.5,40.5,29.68,NNE,23,4.0,7.2,66,0.00,,,0.00,WUHU216HW,2013-04-17 11:20:00,
2013-04-17 07:25:00,50.8,40.2,29.68,NNE,23,4.7,7.2,67,0.00,,,0.00,WUHU216HW,2013-04-17 11:25:00,
2013-04-17 07:30:00,50.6,40.4,29.68,NW,315,1.8,6.9,68,0.00,,,0.00,WUHU216HW,2013-04-17 11:30:00,
2013-04-17 07:35:00,50.8,40.6,29.69,North,0,2.9,6.9,68,0.00,,,0.00,WUHU216HW,2013-04-17 11:35:00,
2013-04-17 07:40:00,50.9,40.3,29.69,North,0,1.6,6.9,67,0.00,,,0.00,WUHU216HW,2013-04-17 11:40:00,
2013-04-17 07:45:00,51.1,40.5,29.69,WNW,293,2.9,4.7,67,0.00,,,0.00,WUHU216HW,2013-04-17 11:45:00,
2013-04-17 07:50:00,51.3,40.7,29.70,WNW,293,4.3,4.3,67,0.00,,,0.00,WUHU216HW,2013-04-17 11:50:00,
2013-04-17 07:55:00,51.3,40.3,29.70,North,0,1.1,4.3,66,0.00,,,0.00,WUHU216HW,2013-04-17 11:55:00,
2013-04-17 08:00:00,51.3,40.7,29.70,NW,315,2.0,4.7,67,0.00,,,0.00,WUHU216HW,2013-04-17 12:00:00,
2013-04-17 08:05:00,51.5,40.1,29.70,NNW,338,2.5,4.7,65,0.00,,,0.00,WUHU216HW,2013-04-17 12:05:00,
2013-04-17 08:10:00,51.5,40.1,29.70,SE,135,3.4,6.9,65,0.00,,,0.00,WUHU216HW,2013-04-17 12:10:00,
2013-04-17 08:16:00,51.5,40.1,29.70,North,0,2.5,8.7,65,0.00,,,0.00,WUHU216HW,2013-04-17 12:16:00,
2013-04-17 08:21:00,52.7,40.9,29.71,NNW,338,3.4,8.7,64,0.00,,,0.00,WUHU216HW,2013-04-17 12:21:00,
2013-04-17 08:26:00,54.0,41.7,29.71,NW,315,1.8,4.7,63,0.00,,,0.00,WUHU216HW,2013-04-17 12:26:00,
2013-04-17 08:31:00,55.3,42.0,29.71,NW,315,4.3,4.3,61,0.00,,,0.00,WUHU216HW,2013-04-17 12:31:00,
2013-04-17 08:36:00,55.1,41.4,29.71,WSW,248,3.8,4.3,60,0.00,,,0.00,WUHU216HW,2013-04-17 12:36:00,
2013-04-17 08:41:00,56.0,41.4,29.71,NNE,23,3.1,5.4,58,0.00,,,0.00,WUHU216HW,2013-04-17 12:41:00,
2013-04-17 08:46:00,56.2,40.1,29.71,NNW,338,3.8,5.4,55,0.00,,,0.00,WUHU216HW,2013-04-17 12:46:00,
2013-04-17 08:51:00,56.2,39.7,29.71,WSW,248,6.3,6.3,54,0.00,,,0.00,WUHU216HW,2013-04-17 12:51:00,
2013-04-17 08:56:00,56.0,39.5,29.71,NW,315,0.9,6.9,54,0.00,,,0.00,WUHU216HW,2013-04-17 12:56:00,
2013-04-17 09:01:00,56.3,39.9,29.71,NNW,338,2.2,6.9,54,0.00,,,0.00,WUHU216HW,2013-04-17 13:01:00,
2013-04-17 09:06:00,56.3,39.4,29.71,SW,225,2.5,7.4,53,0.00,,,0.00,WUHU216HW,2013-04-17 13:06:00,
2013-04-17 09:12:00,56.2,39.3,29.71,NNE,23,4.3,7.4,53,0.00,,,0.00,WUHU216HW,2013-04-17 13:12:00,
2013-04-17 09:17:00,55.8,38.9,29.71,NNW,338,1.1,6.3,53,0.00,,,0.00,WUHU216HW,2013-04-17 13:17:00,
2013-04-17 09:22:00,55.8,38.9,29.71,North,0,4.5,8.1,53,0.00,,,0.00,WUHU216HW,2013-04-17 13:22:00,
2013-04-17 09:27:00,56.2,39.7,29.71,NNE,23,2.0,8.1,54,0.00,,,0.00,WUHU216HW,2013-04-17 13:27:00,
2013-04-17 09:32:00,56.5,39.1,29.71,NW,315,3.1,6.9,52,0.00,,,0.00,WUHU216HW,2013-04-17 13:32:00,
2013-04-17 09:37:00,56.7,39.2,29.71,North,0,2.5,5.1,52,0.00,,,0.00,WUHU216HW,2013-04-17 13:37:00,
2013-04-17 09:42:00,56.5,39.1,29.71,North,0,4.5,6.9,52,0.00,,,0.00,WUHU216HW,2013-04-17 13:42:00,
2013-04-17 09:47:00,56.9,39.0,29.71,NNW,338,1.6,6.9,51,0.00,,,0.00,WUHU216HW,2013-04-17 13:47:00,
2013-04-17 09:52:00,57.2,38.4,29.72,WNW,293,4.7,6.7,49,0.00,,,0.00,WUHU216HW,2013-04-17 13:52:00,
2013-04-17 09:57:00,57.2,37.2,29.71,NNW,338,2.0,5.8,47,0.00,,,0.00,WUHU216HW,2013-04-17 13:57:00,
2013-04-17 10:02:00,57.1,37.0,29.72,NNW,338,1.8,6.3,47,0.00,,,0.00,WUHU216HW,2013-04-17 14:02:00,
2013-04-17 10:07:00,57.8,37.6,29.72,WNW,293,3.1,6.3,47,0.00,,,0.00,WUHU216HW,2013-04-17 14:07:00,
2013-04-17 10:12:00,57.6,36.4,29.72,West,270,5.6,5.6,45,0.00,,,0.00,WUHU216HW,2013-04-17 14:12:00,
2013-04-17 10:17:00,58.0,37.3,29.72,WNW,293,1.1,5.8,46,0.00,,,0.00,WUHU216HW,2013-04-17 14:17:00,
2013-04-17 10:22:00,58.0,36.6,29.72,North,0,4.7,8.9,45,0.00,,,0.00,WUHU216HW,2013-04-17 14:22:00,
2013-04-17 10:28:00,57.6,36.4,29.72,North,0,2.9,8.9,45,0.00,,,0.00,WUHU216HW,2013-04-17 14:28:00,
2013-04-17 10:33:00,57.6,35.7,29.72,NW,315,1.1,8.5,44,0.00,,,0.00,WUHU216HW,2013-04-17 14:33:00,
2013-04-17 10:38:00,58.0,34.4,29.72,NNW,338,6.9,8.5,41,0.00,,,0.00,WUHU216HW,2013-04-17 14:38:00,
2013-04-17 10:43:00,57.8,35.4,29.72,NNW,338,3.4,8.1,43,0.00,,,0.00,WUHU216HW,2013-04-17 14:43:00,
2013-04-17 10:48:00,58.3,34.1,29.72,North,0,1.8,9.8,40,0.00,,,0.00,WUHU216HW,2013-04-17 14:48:00,
2013-04-17 10:53:00,58.9,34.6,29.72,WSW,248,5.4,9.8,40,0.00,,,0.00,WUHU216HW,2013-04-17 14:53:00,
2013-04-17 10:58:00,58.7,33.8,29.72,NNE,23,2.7,6.7,39,0.00,,,0.00,WUHU216HW,2013-04-17 14:58:00,
2013-04-17 11:03:00,58.7,33.0,29.72,NNW,338,2.5,7.4,38,0.00,,,0.00,WUHU216HW,2013-04-17 15:03:00,
2013-04-17 11:08:00,59.0,34.0,29.72,WNW,293,3.6,7.4,39,0.00,,,0.00,WUHU216HW,2013-04-17 15:08:00,
2013-04-17 11:13:00,59.8,34.7,29.72,NW,315,4.7,6.7,39,0.00,,,0.00,WUHU216HW,2013-04-17 15:13:00,
2013-04-17 11:18:00,60.1,33.6,29.72,NW,315,4.7,7.2,37,0.00,,,0.00,WUHU216HW,2013-04-17 15:18:00,
2013-04-17 11:23:00,59.8,33.9,29.72,NNE,23,0.0,7.2,38,0.00,,,0.00,WUHU216HW,2013-04-17 15:23:00,
2013-04-17 11:28:00,60.5,34.6,29.72,North,0,6.9,10.3,38,0.00,,,0.00,WUHU216HW,2013-04-17 15:28:00,
2013-04-17 11:33:00,60.3,33.8,29.72,WNW,293,5.1,10.3,37,0.00,,,0.00,WUHU216HW,2013-04-17 15:33:00,
2013-04-17 11:38:00,60.5,34.6,29.72,NW,315,2.0,6.9,38,0.00,,,0.00,WUHU216HW,2013-04-17 15:38:00,
2013-04-17 11:44:00,60.8,33.5,29.72,NNE,23,4.7,6.7,36,0.00,,,0.00,WUHU216HW,2013-04-17 15:44:00,
2013-04-17 11:49:00,61.2,34.6,29.72,NNW,338,2.7,8.1,37,0.00,,,0.00,WUHU216HW,2013-04-17 15:49:00,
2013-04-17 11:54:00,61.6,34.1,29.72,WNW,293,1.8,8.1,36,0.00,,,0.00,WUHU216HW,2013-04-17 15:54:00,
2013-04-17 11:59:00,61.6,32.7,29.72,NW,315,2.5,8.3,34,0.00,,,0.00,WUHU216HW,2013-04-17 15:59:00,
2013-04-17 12:04:00,61.2,32.4,29.72,West,270,5.4,8.3,34,0.00,,,0.00,WUHU216HW,2013-04-17 16:04:00,
2013-04-17 12:09:00,61.2,32.4,29.72,West,270,2.5,6.3,34,0.00,,,0.00,WUHU216HW,2013-04-17 16:09:00,
2013-04-17 12:14:00,61.9,34.5,29.71,NNW,338,2.5,5.6,36,0.00,,,0.00,WUHU216HW,2013-04-17 16:14:00,
2013-04-17 12:19:00,62.6,33.7,29.71,NW,315,3.4,5.6,34,0.00,,,0.00,WUHU216HW,2013-04-17 16:19:00,
2013-04-17 12:24:00,62.8,32.4,29.71,NNW,338,8.7,9.4,32,0.00,,,0.00,WUHU216HW,2013-04-17 16:24:00,
2013-04-17 12:29:00,62.6,32.9,29.71,ENE,68,6.3,9.4,33,0.00,,,0.00,WUHU216HW,2013-04-17 16:29:00,
2013-04-17 12:34:00,62.5,32.8,29.71,NE,45,5.1,6.3,33,0.00,,,0.00,WUHU216HW,2013-04-17 16:34:00,
2013-04-17 12:39:00,62.6,33.7,29.71,North,0,3.1,9.6,34,0.00,,,0.00,WUHU216HW,2013-04-17 16:39:00,
2013-04-17 12:44:00,62.6,32.9,29.71,North,0,6.9,9.6,33,0.00,,,0.00,WUHU216HW,2013-04-17 16:44:00,
2013-04-17 12:49:00,62.8,33.1,29.71,NW,315,3.1,7.2,33,0.00,,,0.00,WUHU216HW,2013-04-17 16:49:00,
2013-04-17 12:54:00,63.4,32.1,29.70,NNE,23,6.9,6.9,31,0.00,,,0.00,WUHU216HW,2013-04-17 16:54:00,
2013-04-17 13:00:00,63.2,32.7,29.71,WNW,293,2.0,6.9,32,0.00,,,0.00,WUHU216HW,2013-04-17 17:00:00,
2013-04-17 13:05:00,63.2,32.7,29.71,WNW,293,2.7,7.6,32,0.00,,,0.00,WUHU216HW,2013-04-17 17:05:00,
2013-04-17 13:10:00,63.4,33.6,29.70,West,270,1.1,7.6,33,0.00,,,0.00,WUHU216HW,2013-04-17 17:10:00,
2013-04-17 13:15:00,64.4,33.8,29.70,NW,315,4.7,7.6,32,0.00,,,0.00,WUHU216HW,2013-04-17 17:15:00,
2013-04-17 13:20:00,64.1,32.8,29.70,NE,45,1.8,7.6,31,0.00,,,0.00,WUHU216HW,2013-04-17 17:20:00,
2013-04-17 13:25:00,64.3,32.2,29.71,NW,315,3.1,7.6,30,0.00,,,0.00,WUHU216HW,2013-04-17 17:25:00,
2013-04-17 13:30:00,63.9,32.7,29.71,North,0,6.5,7.6,31,0.00,,,0.00,WUHU216HW,2013-04-17 17:30:00,
2013-04-17 13:35:00,63.9,32.7,29.70,NNE,23,2.5,7.6,31,0.00,,,0.00,WUHU216HW,2013-04-17 17:35:00,
2013-04-17 13:40:00,63.9,32.7,29.70,WNW,293,3.4,7.6,31,0.00,,,0.00,WUHU216HW,2013-04-17 17:40:00,
2013-04-17 13:45:00,64.6,34.0,29.70,NW,315,2.5,6.3,32,0.00,,,0.00,WUHU216HW,2013-04-17 17:45:00,
2013-04-17 13:50:00,65.3,33.9,29.70,NW,315,3.4,6.3,31,0.00,,,0.00,WUHU216HW,2013-04-17 17:50:00,
2013-04-17 13:55:00,65.7,34.3,29.70,West,270,4.7,7.6,31,0.00,,,0.00,WUHU216HW,2013-04-17 17:55:00,
2013-04-17 14:00:00,66.1,34.6,29.70,NW,315,6.3,7.6,31,0.00,,,0.00,WUHU216HW,2013-04-17 18:00:00,
2013-04-17 14:06:00,66.1,33.8,29.69,North,0,9.8,9.8,30,0.00,,,0.00,WUHU216HW,2013-04-17 18:06:00,
2013-04-17 14:11:00,65.3,33.2,29.70,NNE,23,3.1,9.8,30,0.00,,,0.00,WUHU216HW,2013-04-17 18:11:00,
2013-04-17 14:16:00,65.3,33.2,29.70,North,0,2.5,7.8,30,0.00,,,0.00,WUHU216HW,2013-04-17 18:16:00,
2013-04-17 14:21:00,65.7,34.3,29.71,North,0,7.2,7.2,31,0.00,,,0.00,WUHU216HW,2013-04-17 18:21:00,
2013-04-17 14:26:00,65.9,35.1,29.70,NNE,23,1.1,7.2,32,0.00,,,0.00,WUHU216HW,2013-04-17 18:26:00,
2013-04-17 14:31:00,66.6,35.7,29.70,NNE,23,5.1,5.4,32,0.00,,,0.00,WUHU216HW,2013-04-17 18:31:00,
2013-04-17 14:36:00,67.0,34.6,29.70,West,270,4.0,5.4,30,0.00,,,0.00,WUHU216HW,2013-04-17 18:36:00,
2013-04-17 14:41:00,67.3,34.9,29.70,NNW,338,2.7,5.1,30,0.00,,,0.00,WUHU216HW,2013-04-17 18:41:00,
2013-04-17 14:46:00,67.3,34.9,29.70,North,0,2.2,4.5,30,0.00,,,0.00,WUHU216HW,2013-04-17 18:46:00,
2013-04-17 14:51:00,67.1,33.8,29.71,WNW,293,6.9,6.9,29,0.00,,,0.00,WUHU216HW,2013-04-17 18:51:00,
2013-04-17 14:56:00,66.8,34.5,29.71,NNW,338,2.9,9.6,30,0.00,,,0.00,WUHU216HW,2013-04-17 18:56:00,
2013-04-17 15:01:00,66.6,33.3,29.71,ENE,68,3.1,9.6,29,0.00,,,0.00,WUHU216HW,2013-04-17 19:01:00,
2013-04-17 15:06:00,66.6,33.3,29.71,NNE,23,5.8,11.9,29,0.00,,,0.00,WUHU216HW,2013-04-17 19:06:00,
2013-04-17 15:12:00,66.6,32.3,29.71,North,0,2.5,11.9,28,0.00,,,0.00,WUHU216HW,2013-04-17 19:12:00,
2013-04-17 15:17:00,66.6,34.3,29.71,WNW,293,3.4,6.3,30,0.00,,,0.00,WUHU216HW,2013-04-17 19:17:00,
2013-04-17 15:22:00,67.3,34.9,29.71,North,0,1.1,5.1,30,0.00,,,0.00,WUHU216HW,2013-04-17 19:22:00,
2013-04-17 15:27:00,67.3,32.9,29.71,NNE,23,3.8,6.3,28,0.00,,,0.00,WUHU216HW,2013-04-17 19:27:00,
2013-04-17 15:32:00,67.0,31.6,29.71,NNE,23,3.1,6.3,27,0.00,,,0.00,WUHU216HW,2013-04-17 19:32:00,
2013-04-17 15:37:00,66.8,32.5,29.71,NW,315,2.9,4.9,28,0.00,,,0.00,WUHU216HW,2013-04-17 19:37:00,
2013-04-17 15:42:00,66.6,32.3,29.71,NW,315,4.5,9.4,28,0.00,,,0.00,WUHU216HW,2013-04-17 19:42:00,
2013-04-17 15:47:00,66.4,33.1,29.71,ESE,113,0.7,9.4,29,0.00,,,0.00,WUHU216HW,2013-04-17 19:47:00,
2013-04-17 15:52:00,66.6,33.3,29.71,NE,45,4.5,5.4,29,0.00,,,0.00,WUHU216HW,2013-04-17 19:52:00,
2013-04-17 15:57:00,67.0,32.6,29.71,NW,315,2.7,6.5,28,0.00,,,0.00,WUHU216HW,2013-04-17 19:57:00,
2013-04-17 16:03:00,67.0,32.6,29.72,North,0,1.6,7.6,28,0.00,,,0.00,WUHU216HW,2013-04-17 20:03:00,
2013-04-17 16:08:00,67.1,34.7,29.72,WSW,248,1.3,7.6,30,0.00,,,0.00,WUHU216HW,2013-04-17 20:08:00,
2013-04-17 16:13:00,68.4,33.9,29.72,West,270,3.8,6.3,28,0.00,,,0.00,WUHU216HW,2013-04-17 20:13:00,
2013-04-17 16:18:00,67.9,31.3,29.72,NW,315,5.8,6.9,26,0.00,,,0.00,WUHU216HW,2013-04-17 20:18:00,
2013-04-17 16:23:00,67.0,32.6,29.72,North,0,3.4,6.9,28,0.00,,,0.00,WUHU216HW,2013-04-17 20:23:00,
2013-04-17 16:28:00,66.2,30.0,29.72,NNE,23,8.7,8.7,26,0.00,,,0.00,WUHU216HW,2013-04-17 20:28:00,
2013-04-17 16:33:00,65.5,29.3,29.72,North,0,6.3,9.2,26,0.00,,,0.00,WUHU216HW,2013-04-17 20:33:00,
2013-04-17 16:38:00,65.5,31.4,29.72,North,0,1.8,9.2,28,0.00,,,0.00,WUHU216HW,2013-04-17 20:38:00,
2013-04-17 16:43:00,65.7,31.5,29.73,West,270,2.7,7.2,28,0.00,,,0.00,WUHU216HW,2013-04-17 20:43:00,
2013-04-17 16:48:00,65.2,31.1,29.73,NNE,23,4.0,5.6,28,0.00,,,0.00,WUHU216HW,2013-04-17 20:48:00,
2013-04-17 16:53:00,65.3,32.2,29.73,NNW,338,0.7,5.6,29,0.00,,,0.00,WUHU216HW,2013-04-17 20:53:00,
2013-04-17 16:58:00,65.3,33.2,29.73,WSW,248,2.5,6.0,30,0.00,,,0.00,WUHU216HW,2013-04-17 20:58:00,
2013-04-17 17:03:00,65.2,31.1,29.73,NNW,338,4.0,7.2,28,0.00,,,0.00,WUHU216HW,2013-04-17 21:03:00,
2013-04-17 17:08:00,64.8,32.8,29.73,NNE,23,2.7,7.2,30,0.00,,,0.00,WUHU216HW,2013-04-17 21:08:00,
2013-04-17 17:13:00,65.2,33.0,29.73,North,0,0.7,4.0,30,0.00,,,0.00,WUHU216HW,2013-04-17 21:13:00,
2013-04-17 17:19:00,66.1,32.9,29.74,North,0,3.6,5.1,29,0.00,,,0.00,WUHU216HW,2013-04-17 21:19:00,
2013-04-17 17:24:00,66.1,32.9,29.74,North,0,3.4,5.6,29,0.00,,,0.00,WUHU216HW,2013-04-17 21:24:00,
2013-04-17 17:29:00,65.9,32.7,29.74,North,0,2.5,5.6,29,0.00,,,0.00,WUHU216HW,2013-04-17 21:29:00,
2013-04-17 17:34:00,65.5,33.4,29.74,NE,45,2.5,5.6,30,0.00,,,0.00,WUHU216HW,2013-04-17 21:34:00,
2013-04-17 17:39:00,65.3,32.2,29.75,West,270,2.5,4.3,29,0.00,,,0.00,WUHU216HW,2013-04-17 21:39:00,
2013-04-17 17:44:00,64.8,32.8,29.75,NW,315,2.0,5.8,30,0.00,,,0.00,WUHU216HW,2013-04-17 21:44:00,
2013-04-17 17:49:00,65.2,33.0,29.75,NNW,338,1.8,5.8,30,0.00,,,0.00,WUHU216HW,2013-04-17 21:49:00,
2013-04-17 17:54:00,64.8,31.8,29.75,West,270,2.7,5.4,29,0.00,,,0.00,WUHU216HW,2013-04-17 21:54:00,
2013-04-17 17:59:00,64.6,32.6,29.76,ENE,68,1.8,5.4,30,0.00,,,0.00,WUHU216HW,2013-04-17 21:59:00,
2013-04-17 18:04:00,64.4,31.4,29.76,ENE,68,2.2,4.7,29,0.00,,,0.00,WUHU216HW,2013-04-17 22:04:00,
2013-04-17 18:09:00,64.1,30.1,29.76,NNW,338,4.7,7.2,28,0.00,,,0.00,WUHU216HW,2013-04-17 22:09:00,
2013-04-17 18:14:00,63.7,29.8,29.76,ENE,68,5.6,7.2,28,0.00,,,0.00,WUHU216HW,2013-04-17 22:14:00,
2013-04-17 18:19:00,63.5,29.6,29.76,North,0,0.4,6.9,28,0.00,,,0.00,WUHU216HW,2013-04-17 22:19:00,
2013-04-17 18:24:00,63.0,29.2,29.77,North,0,3.6,6.9,28,0.00,,,0.00,WUHU216HW,2013-04-17 22:24:00,
2013-04-17 18:29:00,62.3,29.5,29.77,NNW,338,4.0,6.9,29,0.00,,,0.00,WUHU216HW,2013-04-17 22:29:00,
2013-04-17 18:34:00,61.9,29.2,29.77,NNW,338,2.5,6.3,29,0.00,,,0.00,WUHU216HW,2013-04-17 22:34:00,
2013-04-17 18:40:00,61.6,29.8,29.77,NNW,338,3.1,6.3,30,0.00,,,0.00,WUHU216HW,2013-04-17 22:40:00,
2013-04-17 18:45:00,61.6,29.8,29.77,North,0,1.6,4.7,30,0.00,,,0.00,WUHU216HW,2013-04-17 22:45:00,
2013-04-17 18:50:00,61.9,29.2,29.78,NE,45,2.9,4.0,29,0.00,,,0.00,WUHU216HW,2013-04-17 22:50:00,
2013-04-17 18:55:00,61.2,28.5,29.78,North,0,2.5,7.4,29,0.00,,,0.00,WUHU216HW,2013-04-17 22:55:00,
2013-04-17 19:00:00,60.5,29.6,29.78,North,0,1.3,7.4,31,0.00,,,0.00,WUHU216HW,2013-04-17 23:00:00,
2013-04-17 19:05:00,59.9,29.2,29.78,NNE,23,0.7,3.8,31,0.00,,,0.00,WUHU216HW,2013-04-17 23:05:00,
2013-04-17 19:10:00,59.6,29.6,29.78,NNW,338,2.5,3.1,32,0.00,,,0.00,WUHU216HW,2013-04-17 23:10:00,
2013-04-17 19:15:00,59.2,29.3,29.79,NNE,23,2.2,6.5,32,0.00,,,0.00,WUHU216HW,2013-04-17 23:15:00,
2013-04-17 19:20:00,58.9,29.7,29.79,North,0,0.2,7.4,33,0.00,,,0.00,WUHU216HW,2013-04-17 23:20:00,
2013-04-17 19:25:00,58.7,29.5,29.79,NNE,23,2.7,7.4,33,0.00,,,0.00,WUHU216HW,2013-04-17 23:25:00,
2013-04-17 19:30:00,58.3,29.9,29.79,NNW,338,1.1,4.0,34,0.00,,,0.00,WUHU216HW,2013-04-17 23:30:00,
2013-04-17 19:35:00,58.0,29.5,29.79,NNW,338,0.7,3.4,34,0.00,,,0.00,WUHU216HW,2013-04-17 23:35:00,
2013-04-17 19:40:00,57.6,29.3,29.79,NW,315,0.2,5.6,34,0.00,,,0.00,WUHU216HW,2013-04-17 23:40:00,
2013-04-17 19:45:00,57.1,28.7,29.80,NNE,23,0.2,5.6,34,0.00,,,0.00,WUHU216HW,2013-04-17 23:45:00,
2013-04-17 19:50:00,56.5,29.0,29.80,NNW,338,1.3,4.3,35,0.00,,,0.00,WUHU216HW,2013-04-17 23:50:00,
2013-04-17 19:56:00,56.3,29.5,29.80,NNW,338,0.4,4.3,36,0.00,,,0.00,WUHU216HW,2013-04-17 23:56:00,
2013-04-17 20:01:00,55.8,29.7,29.81,ENE,68,1.6,3.4,37,0.00,,,0.00,WUHU216HW,2013-04-18 00:01:00,
2013-04-17 20:06:00,55.4,29.4,29.81,NE,45,0.9,2.7,37,0.00,,,0.00,WUHU216HW,2013-04-18 00:06:00,
2013-04-17 20:11:00,55.1,29.1,29.81,NNE,23,0.4,2.7,37,0.00,,,0.00,WUHU216HW,2013-04-18 00:11:00,
2013-04-17 20:16:00,54.5,29.4,29.81,WNW,293,0.9,2.0,38,0.00,,,0.00,WUHU216HW,2013-04-18 00:16:00,
2013-04-17 20:21:00,54.0,29.5,29.81,NW,315,0.7,0.9,39,0.00,,,0.00,WUHU216HW,2013-04-18 00:21:00,
2013-04-17 20:27:00,53.3,28.9,29.82,NW,315,0.0,0.9,39,0.00,,,0.00,WUHU216HW,2013-04-18 00:27:00,
2013-04-17 20:32:00,52.7,29.1,29.82,NW,315,0.0,0.7,40,0.00,,,0.00,WUHU216HW,2013-04-18 00:32:00,
2013-04-17 20:37:00,52.0,28.5,29.82,North,0,1.1,1.1,40,0.00,,,0.00,WUHU216HW,2013-04-18 00:37:00,
2013-04-17 20:42:00,51.7,28.6,29.82,NNW,338,1.8,3.6,41,0.00,,,0.00,WUHU216HW,2013-04-18 00:42:00,
2013-04-17 20:47:00,51.8,28.8,29.83,NW,315,1.8,3.6,41,0.00,,,0.00,WUHU216HW,2013-04-18 00:47:00,
2013-04-17 20:52:00,51.8,28.8,29.83,North,0,0.0,2.9,41,0.00,,,0.00,WUHU216HW,2013-04-18 00:52:00,
2013-04-17 20:57:00,51.7,28.6,29.83,NE,45,0.0,2.7,41,0.00,,,0.00,WUHU216HW,2013-04-18 00:57:00,
2013-04-17 21:02:00,51.3,28.9,29.83,NE,45,0.0,1.1,42,0.00,,,0.00,WUHU216HW,2013-04-18 01:02:00,
2013-04-17 21:07:00,50.8,28.5,29.83,NE,45,0.0,0.2,42,0.00,,,0.00,WUHU216HW,2013-04-18 01:07:00,
2013-04-17 21:12:00,50.2,27.9,29.83,NE,45,0.0,0.0,42,0.00,,,0.00,WUHU216HW,2013-04-18 01:12:00,
2013-04-17 21:17:00,49.3,27.6,29.83,NE,45,0.0,0.0,43,0.00,,,0.00,WUHU216HW,2013-04-18 01:17:00,
2013-04-17 21:22:00,48.6,27.6,29.83,NE,45,0.0,0.0,44,0.00,,,0.00,WUHU216HW,2013-04-18 01:22:00,
2013-04-17 21:27:00,47.9,27.4,29.83,NE,45,0.0,0.0,45,0.00,,,0.00,WUHU216HW,2013-04-18 01:27:00,
2013-04-17 21:32:00,47.3,27.5,29.83,NE,45,0.0,0.0,46,0.00,,,0.00,WUHU216HW,2013-04-18 01:32:00,
2013-04-17 21:37:00,46.8,27.6,29.84,NE,45,0.0,0.0,47,0.00,,,0.00,WUHU216HW,2013-04-18 01:37:00,
2013-04-17 21:42:00,46.3,27.5,29.84,NE,45,0.0,0.0,48,0.00,,,0.00,WUHU216HW,2013-04-18 01:42:00,
2013-04-17 21:47:00,45.7,27.6,29.84,NE,45,0.0,0.4,49,0.00,,,0.00,WUHU216HW,2013-04-18 01:47:00,
2013-04-17 21:52:00,45.4,27.8,29.84,NNW,338,0.0,0.4,50,0.00,,,0.00,WUHU216HW,2013-04-18 01:52:00,
2013-04-17 21:58:00,45.4,28.3,29.84,NNE,23,0.0,1.6,51,0.00,,,0.00,WUHU216HW,2013-04-18 01:58:00,
2013-04-17 22:03:00,45.7,28.2,29.85,NNE,23,0.2,1.6,50,0.00,,,0.00,WUHU216HW,2013-04-18 02:03:00,
2013-04-17 22:08:00,45.9,28.4,29.85,NNE,23,0.0,1.1,50,0.00,,,0.00,WUHU216HW,2013-04-18 02:08:00,
2013-04-17 22:13:00,45.7,28.2,29.85,North,0,0.2,0.9,50,0.00,,,0.00,WUHU216HW,2013-04-18 02:13:00,
2013-04-17 22:18:00,45.7,28.6,29.85,North,0,0.0,0.9,51,0.00,,,0.00,WUHU216HW,2013-04-18 02:18:00,
2013-04-17 22:23:00,45.7,28.6,29.84,NNE,23,0.2,0.7,51,0.00,,,0.00,WUHU216HW,2013-04-18 02:23:00,
2013-04-17 22:28:00,45.9,28.8,29.84,NNE,23,0.0,2.2,51,0.00,,,0.00,WUHU216HW,2013-04-18 02:28:00,
2013-04-17 22:33:00,46.1,28.9,29.85,NE,45,0.0,2.2,51,0.00,,,0.00,WUHU216HW,2013-04-18 02:33:00,
2013-04-17 22:38:00,45.7,28.6,29.85,NE,45,0.0,1.1,51,0.00,,,0.00,WUHU216HW,2013-04-18 02:38:00,
2013-04-17 22:43:00,45.2,28.1,29.84,NE,45,0.0,0.0,51,0.00,,,0.00,WUHU216HW,2013-04-18 02:43:00,
2013-04-17 22:48:00,44.5,27.9,29.85,NE,45,0.0,0.0,52,0.00,,,0.00,WUHU216HW,2013-04-18 02:48:00,
2013-04-17 22:53:00,43.9,27.9,29.85,NE,45,0.0,0.2,53,0.00,,,0.00,WUHU216HW,2013-04-18 02:53:00,
2013-04-17 22:59:00,43.9,27.9,29.84,NE,45,0.0,0.2,53,0.00,,,0.00,WUHU216HW,2013-04-18 02:59:00,
2013-04-17 23:04:00,43.6,27.6,29.84,NE,45,0.0,0.0,53,0.00,,,0.00,WUHU216HW,2013-04-18 03:04:00,
2013-04-17 23:09:00,43.2,27.6,29.84,NNE,23,0.0,1.3,54,0.00,,,0.00,WUHU216HW,2013-04-18 03:09:00,
2013-04-17 23:14:00,42.7,27.5,29.84,NNE,23,0.0,1.3,55,0.00,,,0.00,WUHU216HW,2013-04-18 03:14:00,
2013-04-17 23:19:00,42.1,27.0,29.84,NNE,23,0.0,0.0,55,0.00,,,0.00,WUHU216HW,2013-04-18 03:19:00,
2013-04-17 23:24:00,41.8,27.2,29.84,NNE,23,0.0,0.0,56,0.00,,,0.00,WUHU216HW,2013-04-18 03:24:00,
2013-04-17 23:29:00,41.4,27.3,29.84,NNE,23,0.0,0.0,57,0.00,,,0.00,WUHU216HW,2013-04-18 03:29:00,
2013-04-17 23:34:00,41.0,26.9,29.84,South,180,0.0,0.7,57,0.00,,,0.00,WUHU216HW,2013-04-18 03:34:00,
2013-04-17 23:39:00,40.7,27.0,29.85,South,180,0.0,0.7,58,0.00,,,0.00,WUHU216HW,2013-04-18 03:39:00,
2013-04-17 23:44:00,40.5,26.8,29.86,South,180,0.0,0.0,58,0.00,,,0.00,WUHU216HW,2013-04-18 03:44:00,
2013-04-17 23:50:00,40.3,27.1,29.86,South,180,0.0,0.0,59,0.00,,,0.00,WUHU216HW,2013-04-18 03:50:00,
2013-04-17 23:55:00,40.0,27.2,29.87,South,180,0.4,0.4,60,0.00,,,0.00,WUHU216HW,2013-04-18 03:55:00,